www.pogodaiklimat.ru

Погода и климат >> Архив погоды >> Россия >> Ямало-Ненецкий АО >> Сеяха


ПОГОДА в Сеяхе

  • Прогноз погоды в Сеяхе
  • Монитор погоды в Сеяхе
  • Климат города

АРХИВ ПОГОДЫ в Сеяхе

Время (UTC), дата Ветер
(напр.,м/с)
 
Видим.   Явления Облачность Т
(С)
Тd
(С)
f
(%)
Тe
(С)
Тes
(С)
Комфортность P
(гПа)
Po
(гПа)
Тmin
(С)
Tmax
(С)
R
(мм)
R24
(мм)
S
(см)
12 17.04 З 7 20 км 9/0
[Ac As Ci fib]
-16.1 -18.5 82 -27 -26 1011.2 1008.8
15 17.04 З 6 20 км 9/0
[Ac As]
-15.6 -17.6 85 -25 -25 1009.9 1007.5 -15.5
18 17.04 ЮЗ 6 20 км 8/0
[Ac As]
-15.3 -17.3 85 -25 -25 1007.2 1004.8
21 17.04 ЮЗ 7-11
{11}
4000 м слабый снег 10/0 300 м
[As op]
-13.7 -15.6 86 -24 -24 1003.2 1000.8
00 18.04 ЮЗ 6
{11}
4000 м слабый снег 10/0 300 м
[As op]
-9.5 -10.9 90 -18 -18 998.2 995.9
03 18.04 З 4 4000 м слабый ливневой снег 9/9 400 м
[Cb cap]
-6.2 -7.3 92 -13 -13 996.2 993.9 -16.0 1 57
06 18.04 З 9-14
{13}
4000 м слабый ливневой снег 9/9 270 м
[Cb cap]
-5.0 -6.2 91 -14 -14 994.4 992.1
09 18.04 ЮЗ 8-11
{15}
4000 м слабый снег {ливн. осадки} 10/0
[As op]
-5.9 -7.5 88 -15 -15 992.1 989.8
12 18.04 ЮЗ 7-10
{13}
4000 м слабый снег {ливн. осадки} 10/0
[As op]
-5.7 -7.1 90 -14 -14 988.8 986.6
15 18.04 ЮЗ 8-11
{13}
4000 м слабый снег {метель} 10/0 400 м
[As op]
-4.7 -5.8 92 -14 -14 986.1 983.9 -4.5 2
18 18.04 ЮЗ 5
{13}
20 км {снег, метель} 9/6 1380 м
[Sc Ac trans]
-4.7 -5.8 92 -12 -12 986.1 984.1
21 18.04 Ю 4 20 км 8/8 1300 м
[Sc]
-10.3 -11.8 89 -17 -17 985.7 983.4
00 19.04 ЮВ 5 20 км 8/3 600 м
[Sc Ac trans]
-11.9 -13.5 88 -20 -20 985.3 983.0
03 19.04 ЮВ 7 4000 м слабый ливневой дождь 9/9 400 м
[Cb cap]
-10.1 -11.7 88 -19 -19 985.4 983.1 -13.0 60
06 19.04 ЮВ 10-12
{12}
20 км {ливн. осадки} 10/10 270 м
[Sc]
-10.1 -12.0 86 -21 -21 986.3 984.0
09 19.04 ЮВ 10-13
{14}
20 км позёмок {ливн. осадки, метель} 9/8 450 м
[Cu Sc Ac trans]
-11.3 -13.7 82 -22 -22 988.2 985.9
12 19.04 ЮВ 9-11
{13}
4000 м слабый ливневой дождь {метель} 8/8 300 м
[Cb cap]
-13.1 -15.3 83 -24 -24 990.8 988.4
15 19.04 В 7
{11}
20 км {ливн. осадки, метель} 3/0
[Ac trans]
-16.4 -18.5 84 -27 -27 992.4 990.0 -9.8 0.7
18 19.04 В 8-11
{12}
20 км {ливн. осадки, метель} 3/0
[Ci fib]
-18.0 -20.1 84 -30 -30 993.3 990.9
21 19.04 В 7
{12}
20 км 3/0
[Ci fib]
-20.0 -22.3 82 -32 -32 опасность
обморожения
994.7 992.2
00 20.04 В 7
{11}
20 км 3/0
[Ci fib]
-21.3 -23.8 80 -33 -33 опасность
обморожения
996.4 994.0
03 20.04 В 6 20 км 8/6 930 м
[Sc Ac trans]
-19.2 -21.6 81 -30 -30 997.7 995.3 -21.6 61
06 20.04 В 6 4000 м слабый ливневой снег {метель} 9/8 270 м
[Cb cap Ac trans]
-14.0 -15.9 85 -23 -23 998.3 996.0
09 20.04 СВ 7
{11}
20 км {ливн. осадки, метель} 9/8 500 м
[Cu Sc Ac trans]
-11.3 -13.4 84 -21 -20 998.8 996.4
12 20.04 СВ 6 20 км {ливн. осадки, метель} 9/8 480 м
[Cu Sc Ac trans]
-10.9 -12.8 86 -20 -19 998.9 996.6
15 20.04 С 6 4000 м дымка 8/4 300 м
[Sc Ac trans Ci fib]
-14.0 -15.8 86 -23 -23 998.0 995.7 -10.6 0.4
18 20.04 С 6 20 км 8/8 600 м
[Sc]
-14.1 -15.9 86 -23 -23 996.5 994.2
21 20.04 Ю 9 20 км 10/10 500 м
[Sc]
-13.6 -15.4 86 -25 -25 994.9 992.5
00 21.04 СВ 8
{10}
20 км 10/10 330 м
[St]
-13.1 -14.8 87 -23 -23 993.9 991.6
03 21.04 СВ 7 20 км {метель} 8/0
[Ac As Ci fib]
-15.8 -18.0 83 -26 -26 994.7 992.3 -16.3 60
06 21.04 В 6 20 км {метель} 8/0 270 м
[Ac As Ci fib]
-14.6 -17.0 82 -24 -22 996.0 993.6 -16.3
09 21.04 СВ 5 20 км 4/0
[Ac trans Ci fib]
-12.8 -15.2 82 -21 -19 996.8 994.4
12 21.04 С 4 4000 м слабый снег 9/0
[As op Ci fib]
-13.1 -15.6 81 -20 -20 997.4 995.0
15 21.04 С 4 20 км {снег} 8/0
[Ac As Ci fib]
-15.7 -17.4 87 -24 -24 997.6 995.2 -12.6 0.2
18 21.04 С 6 4000 м слабый снег 9/0
[Ac As Cs]
-15.1 -17.0 85 -25 -25 997.8 995.4
21 21.04 СЗ 6 4000 м слабый снег 9/0
[Ac As]
-16.0 -18.0 85 -26 -26 998.2 995.8
00 22.04 СЗ 5 4000 м слабый снег 10/0
[As op]
-18.7 -21.0 82 -28 -28 998.9 996.5
03 22.04 СЗ 7 20 км {снег} 9/0
[As trans]
-18.3 -20.6 82 -30 -29 999.3 996.9 -19.7 1 61
06 22.04 СЗ 8
{11}
20 км {снег} 8/3 330 м
[Cu med, cong Cs]
-15.3 -17.7 82 -26 -26 999.9 997.5
09 22.04 СЗ 9-11
{11}
4000 м слабый ливневой снег {метель} 8/3 300 м
[Cb cap Ac trans Ci fib]
-13.2 -15.6 82 -24 -24 1000.8 998.4
12 22.04 СЗ 8-10
{12}
4000 м слабый ливневой снег {метель} 8/6 400 м
[Cb cap Ac trans Cc]
-12.5 -14.7 84 -23 -23 1002.2 999.8
15 22.04 СЗ 8-12
{12}
20 км позёмок {ливн. осадки, метель} 9/9 330 м
[Cu Sc]
-12.0 -13.9 86 -22 -22 1003.6 1001.2 -11.9 0.6
18 22.04 СЗ 7-11
{12}
20 км {ливн. осадки, метель} 10/10 360 м
[Cu Sc]
-12.6 -14.5 86 -22 -22 1005.4 1003.0
21 22.04 З 8
{12}
20 км 6/4 600 м
[Sc Ci fib]
-18.4 -20.6 83 -30 -30 1007.0 1004.6
00 23.04 З 6
{10}
20 км 8/3 300 м
[Cu hum Ci fib]
-19.5 -22.0 80 -30 -30 1009.2 1006.8
03 23.04 З 4 20 км 4/0
[Ci fib]
-19.4 -22.1 79 -28 -26 1010.9 1008.5 -21.3 62
06 23.04 ЮЗ 5 20 км 3/0 240 м
[Ci fib]
-14.4 -17.2 79 -23 -20 1012.5 1010.1
09 23.04 ЮЗ 6 20 км 4/0
[Ci fib]
-12.9 -15.8 79 -22 -20 1013.5 1011.1
12 23.04 Ю 5 20 км 8/0
[Cs]
-12.1 -14.9 80 -20 -19 1013.6 1011.2
15 23.04 Ю 7
{10}
20 км 8/0
[Cs]
-14.6 -16.7 84 -25 -25 1013.0 1010.6 -12.1
18 23.04 Ю 7
{10}
20 км 8/0
[Cs]
-17.2 -19.4 83 -28 -28 1011.7 1009.2
21 23.04 Ю 6
{10}
20 км 8/0
[Cs]
-18.3 -20.7 81 -29 -29 1010.5 1008.0
00 24.04 Ю 6 20 км 8/0
[Cs]
-16.2 -18.7 81 -26 -26 1008.6 1006.2
03 24.04 Ю 7 20 км 8/0
[Cs]
-13.3 -16.1 79 -23 -22 1007.6 1005.2 -18.8 62
06 24.04 Ю 6 20 км 8/0
[Cs]
-10.5 -13.7 77 -19 -17 1007.1 1004.8
09 24.04 Ю 4 20 км 9/0
[Cs]
-7.8 -10.4 82 -15 -11 1006.7 1004.4

 

Местоположение метеостанции Сеяха (Ямало-Ненецкий АО, Россия): широта 70.17 долгота 72.52 высота над уровнем моря 18 м.

В архиве по умолчанию представлена погода в Сеяхе за последнюю неделю. Архивные данные за месяц целиком и за предыдущие месяцы, начиная с января 2011 года, Вы можете получить, выбрав интересующий диапазон дат из раскрывающегося списка и нажав кнопку "Ввод!".


*Определитесь, кто Вы:
робот инопланетянин человек

Внимание! Время в таблицах - всемирное. Для получения местного времени необходимо прибавить поправку, которая в Сеяхе равна 5 ч.

Смотрите также архив погоды в соседних городах и на ближайших метеорологических станциях:

Погода в Тамбее (Ямало-Ненецкий АО, Россия) (148 км)
Погода в Антипаюте (Ямало-Ненецкий АО, Россия) (207 км)
Погода в Марресаля (Ямало-Ненецкий АО, Россия) (224 км)
Погода в Гыде (Ямало-Ненецкий АО, Россия) (234 км)
Погода в Новом Порте (Ямало-Ненецкий АО, Россия) (277 км)
Погода в Inari Angeli (Финляндия) (299 км)
Погода в Усть-Каре (Ненецкий АО, Россия) (310 км)
Погода в Имени Попова (Ямало-Ненецкий АО, Россия) (362 км)
Погода в Тазовском (Ямало-Ненецкий АО, Россия) (390 км)
Погода в Ныде (Ямало-Ненецкий АО, Россия) (394 км)

Пояснения к столбцам:

Ветер - указаны скорость ветра в м/с - средняя за 10 мин, порывы в срок и между сроками (в фигурных скобках) и направление, откуда дует ветер: С - северный, СВ - северо-восточный, В - восточный, ЮВ - юго-восточный, Ю - южный, ЮЗ - юго-западный, З - западный, СЗ - северо-западный.
Видимость - горизонтальная дальность видимости в метрах или километрах. При видимости от 1 до 10 км при отсутствии осадков обычно наблюдается дымка, при ухудшении видимости до 1 км и менее - туман. В сухую погоду видимость может ухудшаться дымом, пылью или мглою.
Явления - указаны атмосферные явления, наблюдавшиеся в срок или в последний час перед сроком; фигурными скобками обозначены явления, наблюдавшиеся между сроками (за 1-3 часа до срока); квадратными скобками обозначены град или гололедные отложения с указанием их диаметра в мм.
Облачность - указаны через наклонную черту общая и нижняя облачность в баллах и высота нижней границы облаков в метрах; квадратными скобками обозначены формы облаков: Ci - перистые, Cs - перисто-слоистые, Cc - перисто-кучевые, Ac - высококучевые, As - высокослоистые, Sc - слоисто-кучевые, Ns - слоисто-дождевые, Cu - кучевые, Cb - кучево-дождевые. Подробнее классификацию облаков см. в Атласе облаков (PDF).
T - Температура воздуха - температура, измеренная на высоте 2 м над землей.
Td - Температура точки росы - температура, при понижении до которой содержащийся в воздухе водяной пар достигнет насыщения.
f - Относительная влажность воздуха - влажноcть воздуха, измеренная на высоте 2 м над землей.
Te - Эффективная температура - температура, которую ощущает одетый по сезону человек в тени. Характеристика душности погоды. При расчете учитывается влияние влажности воздуха и скорости ветра на теплоощущения человека.
Tes - Эффективная температура на солнце - температура, которую ощущает человек, с поправкой на солнечный нагрев. Характеристика знойности погоды. Зависит от высоты солнца над горизонтом, облачности и скорости ветра. Ночью, в пасмурную погоду, а также при ветре 12 м/с и более поправка равна нулю.
P - Атмосферное давление - приведенное к уровню моря атмосферное давление.
Po - Атмосферное давление - измеренное на уровне метеостанции атмосферное давление.
Tmin - Минимальная температура - минимум температуры воздуха на высоте 2 м над землей.
Tmax - Максимальная температура - максимум температуры воздуха на высоте 2 м над землей.
R - Количество осадков - Количество выпавших осадков за период времени, мм. При наведении курсора мыши на число - период времени, за который выпало указанное количество осадков.
R24 - Количество осадков - Количество выпавших осадков за 24 часа, мм.
S - Снежный покров - Высота снежного покрова, см. При наведении курсора мыши на число - состояние снежного покрова и степень покрытия местности в баллах.